Regional Weather Roundup
Issued by NWS Bismarck, ND

Home | Current Version | Previous Version | Text Only | Print | Product List | Glossary On
Versions: 1 2 3 4 5 6 7 8 9 10 11 12 13 14 15 16 17 18 19 20 21 22 23 24 25 26 27 28 29 30 31 32 33 34 35 36 37 38 39 40 41 42 43 44 45 46 47 48 49 50
000
ASUS43 KBIS 252110
RWRBIS

NWR BROADCAST TEXT
NATIONAL WEATHER SERVICE BISMARCK ND
400 PM CDT FRI JUL 25 2014

NOTE: "FAIR" INDICATES FEW OR NO CLOUDS BELOW 12,000 FEET WITH NO
SIGNIFICANT WEATHER AND/OR OBSTRUCTIONS TO VISIBILITY.


CITY           SKY/WX    TMP DP  RH WIND       PRES   REMARKS
WILLISTON      SUNNY     83  37  19 SW20G28   29.77F
MINOT          SUNNY     77  46  33 W16       29.79F
MINOT AFB      SUNNY     76  52  43 W9        29.78F
BISMARCK       SUNNY     82  48  30 W8        29.83F
DICKINSON      SUNNY     81  43  26 SW13      29.84F
GARRISON         N/A     75  52  44 SW10      29.82F
HETTINGER ARPT SUNNY     81  44  27 CALM      29.88F
JAMESTOWN      SUNNY     79  50  36 N12       29.80F
CARRINGTON     FAIR      75  57  53 NW9       29.82S
CROSBY         FAIR      75  48  38 W22G31    29.77F
HARVEY         FAIR      75  54  46 W12       29.81S
HAZEN          FAIR      77  46  33 W9        29.83F
LINTON         FAIR      81  48  32 NW8       29.84F
MANDAN         FAIR      79  50  36 NW7       29.85F
RUGBY          FAIR      73  54  49 W15G21    29.78F
STANLEY        FAIR      75  48  38 SW16G26   29.80F
TIOGA          FAIR      75  46  35 SW15G21   29.83S
WATFORD CITY   FAIR      81  46  30 W12G18    29.77F
$$

CITY           SKY/WX    TMP DP  RH WIND       PRES   REMARKS
GRAND FORKS    MOSUNNY   81  60  48 NW14      29.73R
GRAND FORKS AF SUNNY     81  57  43 NW15      29.75S
DEVILS LAKE    SUNNY     75  54  46 W14       29.77F
FARGO          CLOUDY    78  68  71 NW10      29.75S
CANDO          FAIR      77  55  47 W14G21    29.78S
CAVALIER       FAIR      79  52  38 W15       29.72S
GRAFTON        FAIR      81  50  34 NW10      29.72F
GWINNER        CLOUDY    81  70  69 N10       29.80S
LANGDON        FAIR      77  52  41 W14       29.76F
ROLLA            N/A     73  50  43 W17G23    29.78F
WALHALLA       FAIR      77  50  38 W12G20      N/A
$$

CITY           SKY/WX    TMP DP  RH WIND       PRES   REMARKS
ABERDEEN       CLOUDY    77  68  73 NE8       29.80F
MOBRIDGE       SUNNY     84  48  28 N10       29.81F
BUFFALO          N/A     81  47  30 S6        29.83F
RAPID CITY     SUNNY     79  50  36 SE8       29.91F
GLASGOW        MOSUNNY   83  35  18 W23G31    29.76F
SIDNEY         SUNNY     86  39  19 SW20      29.78F
WOLF POINT     SUNNY     84  34  16 W15G28    29.77F
GLENDIVE       SUNNY     86  37  17 W25G32    29.80F
MILES CITY     SUNNY     88  33  14 SW21G26   29.81F
BAKER          SUNNY     85  40  20 W17G24    29.86F
$$

CITY           SKY/WX    TMP DP  RH WIND       PRES   REMARKS
BILLINGS       SUNNY     86  32  14 SW12G23   29.89F
GREAT FALLS    SUNNY     79  32  18 W25G38    29.89F
REGINA         PTSUNNY   75  50  41 SW21G33   29.67F
ESTEVAN        MOSUNNY   75  54  46 W12G18    29.76F
$$




USA.gov is the U.S. government's official web portal to all federal, state and local government web resources and services.